Погода в Арзубихе

Россия / Вологодская область     60°09′30″N   40°34′24″E
темп.,
°C
ветер,
м/с
пор.,
м/с
влажн.,
%
обл.,
%
осадки,
мм/ч
давл.,
гПа
погр.,
м
7 мая, пт
пт700:00+8юз61388100 0.7 9991124
03:00+6ююз51190100 0.8 1001850
06:00+5ююз41090100 0.2 1003752
09:00+6ююз4887100 0.3 1004860
12:00+9ююз5870100 0.4 10051335
15:00+9юз587182 1.4 10061518
18:00+8юз4878100 1.0 10071048
21:00+4ююз27925 1.1 1009126
8 мая, сб
сб800:00+3ю28945 0.0 1010163
03:00+2ююв299324 0.0 1011174
06:00+5ююв3118796 0.0 1011315
09:00+10ююв51265100 0.0 1010807
12:00+12ююв61353100 0.0 10092235
15:00+10ююв51366100 0.2 10081743
18:00+7юв61387100 1.8 10071212
21:00+7юв51593100 4.4 10041324
9 мая, вс
вс900:00+7юв41296100 1.4 1002886
03:00+8юв31098100 3.9 1000624
06:00+8ююз3699100 2.7 1000586
09:00+6з4796100 3.3 1003728
12:00+4з4897100 0.4 1008636
15:00+3зсз41197100 1.1 1013687
18:00+5зсз4887100 0.1 10171041
21:00+2зюз22932 0.1 102025
10 мая, пн
пн1000:00+1зюз23913 0.0 102257
03:000зюз22940 0.0 102424
06:00+3юз24850 0.0 1026121
09:00+9ююз36545 0.0 1026688
12:00+13юз574397 0.0 10262275
15:00+12юз4753100 0.0 10261655
18:00+10зюз4872100 0.0 1026722
21:00+7юз3887100 0.0 1028418
11 мая, вт
вт1100:00+7ююз2690100 0.0 1027185
03:00+8юз3118796 0.0 1027315
06:00+9юз31087100 0.0 1027252
09:00+16юз476797 0.0 1027594
12:00+19зюз575499 0.0 10271304
15:00+20юз58495 0.0 10261473
18:00+19юз485888 0.0 10261228
21:00+13ююз2987100 0.0 1026193